Content
SEND FEEDBACK

Daily
Averages
Monthly
Summary
United States of America

RAVENSWOOD, WEST VIRGINIA


Home > North America > United States > West Virginia
Elevation: 58 feet     Latitude: 38 57N     Longitude: 081 46W

WEATHER
 
SELECT A DAY
Number of Records: 211,659;   Date Range: 10/27/05 - 7/23/14
 
SHARE

PRINT THIS DATA

[ ← Previous Day ]
WEATHER ALMANAC - JANUARY 31, 2013
[ Next Day → ]
[ °C ]   °F
Weather ElementAverageHighLow
Temperature30.8 °F37.4 °F (12:35 am)28.4 °F (9:35 am)
Dewpoint23 °F35.6 °F (12:35 am)15.8 °F (1:55 pm)
Humidity73.3 %93 % (12:35 am)51 % (2:35 pm)
Barometer29.84 in29.95 in (4:15 pm)29.51 in (12:35 am)
Wind Speed9.8 mph18.4 mph (5:35 am)
Wind Gust33.4 mph (5:35 am)
Weather ElementAverage
Visibility8.3 mi
Wind DirectionWSW (247.6 °)

Weather ElementTotal
Precipitation---
Heating Degree Days32.1 (Base 65)
Averaged from 71 records on January 31, 2013
WEATHER CONDITIONS BREAKOUT
WIND DIRECTION BREAKOUT
WEATHER BY HOUR - JANUARY 31, 2013
[ °C ]   °F
Local TimeTemperatureDewpointHumidityBarometerVisibilityWind DirectionWind SpeedGust SpeedPrecipitationEventsConditions
12:35 AM37.4 °F35.6 °F93 %29.51 in10.0 miWest (280°)15.0 mph18.4 mphRainLight Rain
12:55 AM35.6 °F32.0 °F87 %29.54 in5.0 miWest (270°)10.4 mph21.9 mphRainLight Rain
1:15 AM35.6 °F32.0 °F87 %29.55 in5.0 miWest (260°)9.2 mph20.7 mphLight Drizzle
1:35 AM35.6 °F32.0 °F87 %29.57 in10.0 miWSW (250°)17.3 mph24.2 mphOvercast
1:55 AM35.6 °F30.2 °F81 %29.59 in10.0 miWest (270°)15.0 mph24.2 mphOvercast
2:15 AM33.8 °F28.4 °F81 %29.62 in10.0 miWest (270°)10.4 mph23.0 mphOvercast
2:35 AM33.8 °F28.4 °F81 %29.63 in7.0 miWest (260°)10.4 mph24.2 mphSnowLight Snow
2:55 AM33.8 °F28.4 °F81 %29.64 in10.0 miWSW (250°)6.9 mph17.3 mphOvercast
3:15 AM33.8 °F26.6 °F75 %29.65 in10.0 miWest (270°)8.1 mph24.2 mphOvercast
3:35 AM32.0 °F26.6 °F80 %29.66 in10.0 miWest (260°)12.7 mph18.4 mphOvercast
3:55 AM32.0 °F24.8 °F75 %29.67 in10.0 miWest (260°)11.5 mph24.2 mphOvercast
4:15 AM32.0 °F23.0 °F69 %29.68 in10.0 miWSW (250°)13.8 mph24.2 mphOvercast
4:35 AM32.0 °F24.8 °F75 %29.69 in10.0 miWest (260°)8.1 mph17.3 mphOvercast
4:55 AM32.0 °F26.6 °F80 %29.70 in7.0 miWSW (250°)10.4 mph23.0 mphSnowLight Snow
5:15 AM32.0 °F26.6 °F80 %29.71 in7.0 miWest (260°)11.5 mph23.0 mphSnowLight Snow
5:35 AM32.0 °F26.6 °F80 %29.72 in5.0 miWSW (250°)18.4 mph33.4 mphSnowLight Snow
5:55 AM32.0 °F23.0 °F69 %29.74 in10.0 miWest (260°)10.4 mph23.0 mphOvercast
6:15 AM32.0 °F23.0 °F69 %29.75 in10.0 miWest (260°)12.7 mph27.6 mphMostly Cloudy
6:35 AM32.0 °F21.2 °F64 %29.76 in10.0 miWSW (250°)15.0 mph28.8 mphScattered Clouds
6:55 AM32.0 °F19.4 °F60 %29.77 in10.0 miWSW (250°)15.0 mph31.1 mphScattered Clouds
7:15 AM30.2 °F19.4 °F64 %29.79 in10.0 miWSW (250°)11.5 mph24.2 mphOvercast
7:35 AM30.2 °F19.4 °F64 %29.80 in10.0 miWest (260°)10.4 mph27.6 mphOvercast
7:55 AM30.2 °F19.4 °F64 %29.82 in10.0 miWest (280°)13.8 mph25.3 mphOvercast
8:15 AM30.2 °F17.6 °F60 %29.83 in10.0 miWSW (250°)11.5 mph26.5 mphOvercast
8:35 AM30.2 °F19.4 °F64 %29.84 in10.0 miWSW (250°)10.4 mph18.4 mphOvercast
8:55 AM30.2 °F19.4 °F64 %29.84 in10.0 miWSW (250°)12.7 mph23.0 mphOvercast
9:15 AM30.2 °F21.2 °F69 %29.86 in3.0 miWSW (250°)9.2 mph19.6 mphSnowLight Snow
9:35 AM28.4 °F21.2 °F74 %29.87 in10.0 miWest (280°)6.9 mph20.7 mphOvercast
9:55 AM30.2 °F21.2 °F69 %29.87 in7.0 miWest (280°)8.1 mphSnowLight Snow
10:15 AM28.4 °F23.0 °F80 %29.89 in0.8 miWest (260°)10.4 mph18.4 mphSnowLight Snow
10:35 AM28.4 °F24.8 °F86 %29.90 in2.0 miWest (260°)9.2 mph20.7 mphSnowLight Snow
10:55 AM30.2 °F23.0 °F75 %29.90 in10.0 miWSW (250°)11.5 mph16.1 mphScattered Clouds
11:15 AM30.2 °F21.2 °F69 %29.90 in10.0 miWSW (250°)9.2 mph20.7 mphScattered Clouds
11:35 AM30.2 °F21.2 °F69 %29.91 in10.0 miWest (260°)11.5 mph20.7 mphMostly Cloudy
11:55 AM30.2 °F19.4 °F64 %29.92 in7.0 miWest (260°)10.4 mph24.2 mphSnowLight Snow
12:15 PM28.4 °F23.0 °F80 %29.93 in2.0 miWNW (290°)11.5 mph20.7 mphSnowLight Snow
12:35 PM30.2 °F21.2 °F69 %29.92 in10.0 miWest (280°)11.5 mph17.3 mphOvercast
12:55 PM30.2 °F19.4 °F64 %29.94 in7.0 miWNW (290°)12.7 mph20.7 mphSnowLight Snow
1:15 PM28.4 °F19.4 °F69 %29.93 in10.0 miWest (270°)10.4 mph20.7 mphMostly Cloudy
1:35 PM30.2 °F17.6 °F60 %29.93 in10.0 miWest (270°)9.2 mphMostly Cloudy
1:55 PM30.2 °F15.8 °F55 %29.93 in10.0 miWNW (290°)8.1 mph20.7 mphOvercast
2:15 PM30.2 °F15.8 °F55 %29.93 in10.0 miWSW (250°)18.4 mph25.3 mphMostly Cloudy
2:35 PM32.0 °F15.8 °F51 %29.93 in10.0 miWest (270°)8.1 mph20.7 mphMostly Cloudy
2:55 PM32.0 °F17.6 °F55 %29.93 in10.0 miWSW (250°)12.7 mph18.4 mphScattered Clouds
3:15 PM32.0 °F19.4 °F60 %29.94 in10.0 miWSW (250°)9.2 mph19.6 mphMostly Cloudy
3:35 PM32.0 °F19.4 °F60 %29.94 in10.0 miWSW (240°)17.3 mph23.0 mphScattered Clouds
3:55 PM30.2 °F19.4 °F64 %29.94 in10.0 miWest (270°)8.1 mph16.1 mphMostly Cloudy
4:15 PM30.2 °F23.0 °F75 %29.95 in1.2 miWSW (250°)9.2 mphSnowLight Snow
4:35 PM30.2 °F23.0 °F75 %29.95 in10.0 miWSW (240°)8.1 mphScattered Clouds
4:55 PM30.2 °F23.0 °F75 %29.94 in10.0 miWSW (250°)8.1 mph17.3 mphClear
5:15 PM30.2 °F21.2 °F69 %29.94 in10.0 miWSW (250°)5.8 mphClear
5:35 PM30.2 °F21.2 °F69 %29.94 in10.0 miWSW (250°)9.2 mphScattered Clouds
5:55 PM30.2 °F19.4 °F64 %29.94 in10.0 miWSW (250°)8.1 mphScattered Clouds
6:15 PM30.2 °F21.2 °F69 %29.94 in7.0 miWSW (250°)5.8 mphSnowLight Snow
6:35 PM28.4 °F21.2 °F74 %29.93 in10.0 miCalmMostly Cloudy
6:55 PM28.4 °F21.2 °F74 %29.94 in10.0 miSW (230°)4.6 mphScattered Clouds
7:15 PM28.4 °F21.2 °F74 %29.94 in10.0 miSW (230°)5.8 mphScattered Clouds
7:35 PM28.4 °F21.2 °F74 %29.94 in10.0 miSW (220°)4.6 mphMostly Cloudy
7:55 PM30.2 °F23.0 °F75 %29.94 in10.0 miSW (230°)8.1 mphScattered Clouds
8:15 PM30.2 °F23.0 °F75 %29.94 in10.0 miWSW (240°)6.9 mphScattered Clouds
8:35 PM30.2 °F23.0 °F75 %29.94 in10.0 miSW (230°)5.8 mphScattered Clouds
8:55 PM30.2 °F23.0 °F75 %29.93 in10.0 miSW (220°)4.6 mphScattered Clouds
9:15 PM30.2 °F23.0 °F75 %29.93 in10.0 miCalmScattered Clouds
9:35 PM30.2 °F23.0 °F75 %29.93 in7.0 miWSW (240°)3.5 mphSnowLight Snow
9:55 PM30.2 °F24.8 °F80 %29.93 in3.0 miWSW (250°)5.8 mphSnowLight Snow
10:15 PM28.4 °F26.6 °F93 %29.92 in2.5 miWSW (240°)6.9 mphSnowLight Snow
10:35 PM28.4 °F26.6 °F93 %29.91 in2.5 miWSW (240°)8.1 mphSnowLight Snow
10:55 PM28.4 °F26.6 °F93 %29.90 in2.5 miWSW (240°)6.9 mphSnowLight Snow
11:15 PM28.4 °F26.6 °F93 %29.89 in5.0 miWSW (250°)9.2 mphSnowLight Snow
11:35 PM28.4 °F26.6 °F93 %29.89 in10.0 miWSW (240°)11.5 mph16.1 mphMostly Cloudy
11:55 PM28.4 °F24.8 °F86 %29.89 in7.0 miWSW (240°)12.7 mph17.3 mphOvercast
Hourly data recorded from K3I2, located miles away from Ravenswood, West Virginia







STORIES FROM OUR PARTNERS